EW8832 Weather Reports


Display with metric or nautical units.
time (UTC)temp
F
wind
direction
speed
MPH
gust
MPH
rain 1hr
in
rain 24hr
in
rain mn
in
humidity
%
barometer
mb
20210116082056 31 360 9.0 14.0 0.00 0.00 0.00 84 1013.5
20210116081611 31 360 8.0 10.0 0.00 0.00 0.00 84 1013.5
20210116081106 31 360 7.0 13.0 0.00 0.00 0.00 84 1013.3
20210116080615 31 360 9.0 13.0 0.00 0.00 0.00 84 1013.2
20210116080151 31 360 8.0 13.0 0.00 0.00 0.00 84 1013.1
20210116075601 31 360 9.0 13.0 0.00 0.00 0.00 84 1013.0
20210116075055 31 360 7.0 13.0 0.00 0.00 0.00 84 1013.0
20210116074708 31 360 9.0 13.0 0.00 0.00 0.00 84 1012.9
20210116074053 31 360 6.0 12.0 0.00 0.00 0.00 84 1012.9
20210116073549 31 360 6.0 12.0 0.00 0.00 0.00 84 1012.9
20210116072610 31 360 8.0 14.0 0.00 0.00 0.00 84 1012.9
20210116072050 31 360 8.0 13.0 0.00 0.00 0.00 84 1012.9
20210116071623 31 360 8.0 14.0 0.00 0.00 0.00 84 1012.9
20210116071049 31 360 7.0 16.0 0.00 0.00 0.00 84 1012.9
20210116070547 31 360 10.0 16.0 0.00 0.00 0.00 84 1012.8
20210116070248 31 360 9.0 15.0 0.00 0.00 0.00 84 1012.9
20210116065555 31 360 11.0 15.0 0.00 0.00 0.00 84 1012.9
20210116065050 31 360 8.0 15.0 0.00 0.00 0.00 84 1012.9
20210116064558 31 360 10.0 16.0 0.00 0.00 0.00 84 1012.8
20210116064054 31 360 10.0 16.0 0.00 0.00 0.00 84 1012.9
20210116063548 31 360 10.0 14.0 0.00 0.00 0.00 84 1012.9
20210116062601 31 360 12.0 20.0 0.00 0.00 0.00 83 1012.9
20210116062044 31 360 12.0 20.0 0.00 0.00 0.00 84 1013.0
20210116061655 31 360 11.0 20.0 0.00 0.00 0.00 83 1012.9
20210116061054 31 360 12.0 18.0 0.00 0.00 0.00 84 1013.0
20210116060543 31 360 9.0 17.0 0.00 0.00 0.00 84 1012.9
20210116060116 31 360 11.0 20.0 0.00 0.00 0.00 83 1012.8
20210116055552 31 360 11.0 20.0 0.00 0.00 0.00 83 1012.9
20210116055049 31 360 12.0 18.0 0.00 0.00 0.00 83 1012.9
20210116054632 31 360 12.0 19.0 0.00 0.00 0.00 83 1012.9
20210116054043 31 360 12.0 18.0 0.00 0.00 0.00 83 1013.0
20210116053544 31 360 12.0 17.0 0.00 0.00 0.00 83 1013.0
20210116052610 31 360 11.0 22.0 0.00 0.00 0.00 83 1013.0
20210116052044 31 360 17.0 22.0 0.00 0.00 0.00 83 1012.8
20210116051636 31 360 8.0 18.0 0.00 0.00 0.00 83 1012.9
20210116051050 31 360 12.0 21.0 0.00 0.00 0.00 82 1012.8
20210116050541 31 360 13.0 18.0 0.00 0.00 0.00 82 1012.9
20210116050127 31 360 11.0 20.0 0.00 0.00 0.00 82 1012.7
20210116045549 31 360 13.0 21.0 0.00 0.00 0.00 82 1012.6
20210116045046 31 360 13.0 21.0 0.00 0.00 0.00 82 1012.5
20210116044625 32 360 11.0 22.0 0.00 0.00 0.00 82 1012.4
20210116044058 32 360 14.0 22.0 0.00 0.00 0.00 82 1012.3
20210116043543 32 360 15.0 25.0 0.00 0.00 0.00 82 1012.3
20210116042544 32 360 14.0 26.0 0.00 0.00 0.00 82 1012.5
20210116042058 32 360 14.0 23.0 0.00 0.00 0.00 82 1012.5
20210116041626 32 360 12.0 23.0 0.00 0.00 0.00 82 1012.5
20210116041046 32 360 13.0 26.0 0.00 0.00 0.00 82 1012.5
20210116040545 32 360 16.0 26.0 0.00 0.00 0.00 82 1012.4
20210116040231 32 360 13.0 23.0 0.00 0.00 0.00 82 1012.3
20210116035538 32 360 14.0 23.0 0.00 0.00 0.00 82 1012.4
20210116035040 32 360 15.0 21.0 0.00 0.00 0.00 82 1012.3
20210116034636 32 360 15.0 21.0 0.00 0.00 0.00 83 1012.2
20210116034041 32 360 13.0 22.0 0.00 0.00 0.00 83 1012.2
20210116033540 32 360 12.0 23.0 0.00 0.00 0.00 83 1012.3
20210116032541 32 360 13.0 21.0 0.00 0.00 0.00 83 1012.2
20210116032038 31 360 15.0 21.0 0.00 0.00 0.00 83 1012.1
20210116031549 31 360 14.0 21.0 0.00 0.00 0.00 83 1012.0
20210116031046 31 360 14.0 21.0 0.00 0.00 0.00 83 1011.9
20210116030534 31 360 15.0 21.0 0.00 0.00 0.00 83 1011.9
20210116030142 32 360 13.0 24.0 0.00 0.00 0.00 83 1012.0
20210116025618 32 360 14.0 24.0 0.00 0.00 0.00 83 1011.9
20210116025033 32 360 16.0 23.0 0.00 0.00 0.00 83 1011.9
20210116024555 32 360 14.0 22.0 0.00 0.00 0.00 83 1011.9
20210116024034 32 360 13.0 22.0 0.00 0.00 0.00 83 1011.9
20210116023533 32 360 16.0 22.0 0.00 0.00 0.00 83 1011.8
20210116022531 32 360 16.0 26.0 0.00 0.00 0.00 85 1011.7
20210116022032 31 360 12.0 22.0 0.00 0.00 0.00 86 1011.8
20210116021541 31 360 15.0 22.0 0.00 0.00 0.00 86 1011.7
20210116021030 31 360 12.0 19.0 0.00 0.00 0.00 87 1011.8
20210116020534 31 360 13.0 22.0 0.00 0.00 0.00 87 1011.7
20210116020151 31 360 12.0 22.0 0.00 0.00 0.00 87 1011.8
20210116015531 31 360 14.0 22.0 0.00 0.00 0.00 87 1011.7
20210116015030 31 360 14.0 22.0 0.00 0.00 0.00 87 1011.7
20210116014539 31 360 13.0 20.0 0.00 0.00 0.00 88 1011.7
20210116014032 31 360 14.0 21.0 0.00 0.00 0.00 88 1011.6
20210116013539 31 360 15.0 23.0 0.00 0.00 0.00 89 1011.7
20210116012547 31 360 12.0 22.0 0.00 0.00 0.00 90 1011.8
20210116012051 31 360 15.0 22.0 0.00 0.00 0.00 91 1011.8
20210116011547 31 360 14.0 19.0 0.00 0.00 0.00 91 1011.8
20210116011107 31 360 13.0 20.0 0.00 0.00 0.00 92 1011.8
20210116010555 31 360 14.0 20.0 0.00 0.00 0.00 92 1011.8
20210116010050 31 360 11.0 19.0 0.00 0.00 0.00 92 1011.9
20210116005534 31 360 12.0 19.0 0.00 0.00 0.00 92 1011.9
20210116005036 31 360 14.0 21.0 0.00 0.00 0.00 92 1011.8
20210116004624 31 360 15.0 21.0 0.00 0.00 0.00 92 1011.8
20210116004032 31 360 12.0 21.0 0.00 0.00 0.00 92 1011.7
20210116003604 31 360 13.0 24.0 0.00 0.00 0.00 92 1011.6
20210116002526 31 360 14.0 25.0 0.00 0.00 0.00 91 1011.5
20210116002024 31 360 18.0 25.0 0.00 0.00 0.00 91 1011.4
20210116001625 31 360 13.0 24.0 0.00 0.00 0.00 91 1011.4
20210116001027 31 360 14.0 23.0 0.00 0.00 0.00 91 1011.4
20210116000614 31 360 14.0 25.0 0.00 0.00 0.00 90 1011.4
20210116000039 31 360 14.0 23.0 0.00 0.00 0.00 90 1011.3
20210115235536 31 360 12.0 22.0 0.00 0.00 0.00 90 1011.3
20210115235037 31 360 12.0 24.0 0.00 0.00 0.00 90 1011.3
20210115234610 31 360 14.0 24.0 0.00 0.00 0.00 90 1011.2
20210115234027 31 360 11.0 21.0 0.00 0.00 0.00 90 1011.3
20210115233524 32 360 14.0 21.0 0.00 0.00 0.00 90 1011.1
20210115232513 32 360 16.0 24.0 0.00 0.00 0.00 90 1011.0
20210115232023 32 360 13.0 26.0 0.00 0.00 0.00 90 1011.5
20210115231534 32 360 14.0 26.0 0.00 0.00 0.00 89 1010.9
20210115231024 32 360 12.0 26.0 0.00 0.00 0.00 88 1010.8
20210115230511 32 360 13.0 26.0 0.00 0.00 0.00 88 1010.6
20210115230044 32 360 15.0 28.0 0.00 0.00 0.00 87 1010.6
20210115225516 32 360 16.0 28.0 0.00 0.00 0.00 87 1010.6
20210115225022 32 360 17.0 30.0 0.00 0.00 0.00 86 1010.5
20210115224535 33 360 19.0 30.0 0.00 0.00 0.00 83 1010.4
20210115224051 33 360 17.0 25.0 0.00 0.00 0.00 80 1010.2
20210115223519 34 360 17.0 28.0 0.00 0.00 0.00 78 1010.1
20210115222511 34 360 18.0 28.0 0.00 0.00 0.00 76 1010.0
20210115222004 34 360 16.0 30.0 0.00 0.00 0.00 76 1009.9
20210115221509 34 360 19.0 30.0 0.00 0.00 0.00 77 1009.8
20210115221011 34 360 21.0 29.0 0.00 0.00 0.00 77 1009.7
20210115220504 35 360 17.0 26.0 0.00 0.00 0.00 76 1009.7
20210115220025 35 360 19.0 27.0 0.00 0.00 0.00 74 1009.6
20210115215100 35 360 17.0 24.0 0.00 0.00 0.00 74 1009.4
20210115214703 35 360 13.0 25.0 0.00 0.00 0.00 75 1009.4
20210115214504 35 360 15.0 25.0 0.00 0.00 0.00 75 1009.4
20210115214106 35 360 19.0 25.0 0.00 0.00 0.00 75 1009.3
20210115213615 35 360 13.0 21.0 0.00 0.00 0.00 75 1009.3
20210115212613 35 360 12.0 20.0 0.00 0.00 0.00 75 1009.3
20210115212109 35 360 15.0 22.0 0.00 0.00 0.00 76 1009.2
20210115211757 34 360 17.0 26.0 0.00 0.00 0.00 77 1009.2
20210115211100 34 360 16.0 29.0 0.00 0.00 0.00 76 1008.9
20210115210617 35 360 16.0 21.0 0.00 0.00 0.00 71 1008.8
20210115210157 36 311 14.0 27.0 0.00 0.00 0.00 70 1008.8
20210115205611 36 326 17.0 27.0 0.00 0.00 0.00 74 1008.5
20210115205106 35 360 12.0 29.0 0.00 0.00 0.00 78 1008.8
20210115204757 35 360 19.0 27.0 0.00 0.00 0.00 72 1008.8
20210115204108 36 360 19.0 27.0 0.00 0.00 0.00 69 1008.6
20210115203619 36 360 16.0 27.0 0.00 0.00 0.00 70 1008.5
20210115202609 36 360 10.0 21.0 0.00 0.00 0.00 67 1008.2
20210115202059 35 360 13.0 30.0 0.00 0.00 0.00 71 1008.2
20210115201738 35 360 16.0 31.0 0.00 0.00 0.00 72 1008.2
20210115201058 36 360 15.0 27.0 0.00 0.00 0.00 64 1008.2
20210115200603 36 360 15.0 23.0 0.00 0.00 0.00 61 1008.1
20210115200155 37 360 14.0 24.0 0.00 0.00 0.00 62 1007.9
20210115195616 37 360 12.0 25.0 0.00 0.00 0.00 59 1007.8
20210115195101 38 302 18.0 25.0 0.00 0.00 0.00 57 1007.7
20210115194627 38 311 17.0 25.0 0.00 0.00 0.00 58 1007.7
20210115194057 38 304 15.0 24.0 0.00 0.00 0.00 59 1007.6
20210115193554 38 275 14.0 25.0 0.00 0.00 0.00 62 1007.7
20210115192556 36 360 17.0 28.0 0.00 0.00 0.00 62 1007.7
20210115192113 37 360 15.0 23.0 0.00 0.00 0.00 60 1007.6
20210115191802 37 360 13.0 29.0 0.00 0.00 0.00 60 1007.6
20210115191107 37 360 18.0 29.0 0.00 0.00 0.00 60 1007.6
20210115190555 37 284 14.0 22.0 0.00 0.00 0.00 59 1007.6
20210115190135 37 287 16.0 22.0 0.00 0.00 0.00 57 1007.5
20210115185554 37 293 14.0 21.0 0.00 0.00 0.00 63 1007.5
20210115185105 36 360 15.0 30.0 0.00 0.00 0.00 64 1007.7
20210115184618 37 360 19.0 30.0 0.00 0.00 0.00 59 1007.7
20210115184059 37 297 14.0 25.0 0.00 0.00 0.00 57 1007.6
20210115183553 37 360 15.0 28.0 0.00 0.00 0.00 59 1007.7
20210115182553 37 360 18.0 33.0 0.00 0.00 0.00 59 1007.8
20210115182056 36 360 15.0 30.0 0.00 0.00 0.00 60 1007.8
20210115181639 36 360 20.0 32.0 0.00 0.00 0.00 61 1007.7
20210115181126 37 360 19.0 26.0 0.00 0.00 0.00 55 1007.7
20210115180551 37 360 19.0 26.0 0.00 0.00 0.00 55 1007.7
20210115180146 37 303 15.0 24.0 0.00 0.00 0.00 57 1007.9
20210115175606 37 315 18.0 26.0 0.00 0.00 0.00 56 1007.8
20210115175050 37 360 17.0 26.0 0.00 0.00 0.00 58 1008.0
20210115174608 37 360 19.0 25.0 0.00 0.00 0.00 57 1007.9
20210115174058 37 311 16.0 25.0 0.00 0.00 0.00 57 1008.0
20210115173557 37 298 17.0 28.0 0.00 0.00 0.00 57 1008.1
20210115172559 37 360 19.0 33.0 0.00 0.00 0.00 59 1008.2
20210115172050 36 313 15.0 33.0 0.00 0.00 0.00 61 1008.2
20210115171750 36 317 16.0 27.0 0.00 0.00 0.00 62 1008.3
20210115171052 36 321 13.0 27.0 0.00 0.00 0.00 63 1008.3
20210115170553 36 360 16.0 28.0 0.00 0.00 0.00 63 1008.4
20210115170339 36 360 19.0 28.0 0.00 0.00 0.00 63 1008.4
20210115165557 36 360 14.0 29.0 0.00 0.00 0.00 62 1008.3
20210115165048 36 360 21.0 29.0 0.00 0.00 0.00 61 1008.2
20210115164900 36 290 15.0 26.0 0.00 0.00 0.00 62 1008.3
20210115164055 36 294 17.0 25.0 0.00 0.00 0.00 61 1008.2
20210115163624 37 323 17.0 26.0 0.00 0.00 0.00 58 1008.2
20210115162548 37 302 17.0 28.0 0.00 0.00 0.00 60 1008.2
20210115162048 37 302 15.0 23.0 0.00 0.00 0.00 61 1008.1
20210115161558 36 297 15.0 28.0 0.00 0.00 0.00 61 1008.2
20210115161105 36 295 16.0 28.0 0.00 0.00 0.00 62 1008.2
20210115160549 36 292 15.0 24.0 0.00 0.00 0.00 63 1008.2
20210115160119 35 298 14.0 25.0 0.00 0.00 0.00 66 1008.2
20210115155605 35 360 18.0 27.0 0.00 0.00 0.00 65 1008.1
20210115155048 35 360 15.0 25.0 0.00 0.00 0.00 64 1008.2
20210115154650 35 360 14.0 28.0 0.00 0.00 0.00 64 1008.2
20210115154047 35 360 18.0 28.0 0.00 0.00 0.00 64 1008.1
20210115153551 35 360 18.0 28.0 0.00 0.00 0.00 64 1008.1
20210115152615 35 360 13.0 23.0 0.00 0.00 0.00 63 1008.0
20210115152047 35 360 12.0 23.0 0.00 0.00 0.00 63 1008.0
20210115151644 35 360 14.0 22.0 0.00 0.00 0.00 63 1007.9
20210115151050 35 360 14.0 26.0 0.00 0.00 0.00 63 1007.9
20210115150549 35 360 17.0 26.0 0.00 0.00 0.00 63 1007.9
20210115150058 35 360 16.0 25.0 0.00 0.00 0.00 64 1007.9
20210115145559 35 360 13.0 24.0 0.00 0.00 0.00 64 1007.9
20210115145050 35 360 15.0 24.0 0.00 0.00 0.00 64 1007.9
20210115144624 34 360 15.0 25.0 0.00 0.00 0.00 65 1007.9
20210115144043 34 360 15.0 27.0 0.00 0.00 0.00 65 1007.9
20210115143544 34 360 17.0 27.0 0.00 0.00 0.00 64 1007.8
20210115142544 34 360 17.0 31.0 0.00 0.00 0.00 65 1007.7
20210115142043 34 360 22.0 31.0 0.00 0.00 0.00 64 1007.6
20210115141626 34 360 19.0 28.0 0.00 0.00 0.00 64 1007.6
20210115141042 34 360 13.0 32.0 0.00 0.00 0.00 63 1007.7
20210115140540 34 360 21.0 32.0 0.00 0.00 0.00 62 1007.5
20210115140058 34 360 19.0 29.0 0.00 0.00 0.00 61 1007.3
20210115135546 34 360 18.0 29.0 0.00 0.00 0.00 61 1007.3
20210115135052 34 360 12.0 22.0 0.00 0.00 0.00 61 1007.3
20210115134602 34 360 12.0 24.0 0.00 0.00 0.00 61 1007.3
20210115134051 34 360 14.0 23.0 0.00 0.00 0.00 62 1007.1
20210115133541 33 360 8.0 16.0 0.00 0.00 0.00 62 1007.2
20210115132543 33 360 10.0 17.0 0.00 0.00 0.00 61 1007.1
20210115132050 33 360 8.0 18.0 0.00 0.00 0.00 61 1007.1
20210115131603 33 360 9.0 18.0 0.00 0.00 0.00 61 1007.2
20210115131043 33 360 8.0 17.0 0.00 0.00 0.00 61 1007.2
20210115130542 33 360 9.0 17.0 0.00 0.00 0.00 61 1007.3
20210115130146 33 360 10.0 16.0 0.00 0.00 0.00 61 1007.3
20210115125535 33 360 8.0 13.0 0.00 0.00 0.00 61 1007.3
20210115125031 33 360 8.0 15.0 0.00 0.00 0.00 61 1007.4
20210115124614 33 360 8.0 15.0 0.00 0.00 0.00 60 1007.5
20210115124030 33 360 7.0 15.0 0.00 0.00 0.00 60 1007.4
20210115123530 33 360 10.0 16.0 0.00 0.00 0.00 60 1007.5
20210115122537 33 360 9.0 14.0 0.00 0.00 0.00 59 1007.5
20210115122051 34 360 8.0 14.0 0.00 0.00 0.00 59 1007.6
20210115121635 34 360 9.0 16.0 0.00 0.00 0.00 59 1007.6
20210115121201 33 360 11.0 16.0 0.00 0.00 0.00 59 1007.6
20210115120535 33 360 8.0 14.0 0.00 0.00 0.00 60 1007.6
20210115120102 34 360 8.0 15.0 0.00 0.00 0.00 59 1007.7
20210115115532 34 360 9.0 15.0 0.00 0.00 0.00 59 1007.8
20210115115028 34 360 9.0 15.0 0.00 0.00 0.00 60 1007.7
20210115114626 34 360 8.0 15.0 0.00 0.00 0.00 60 1007.7
20210115114022 33 360 9.0 15.0 0.00 0.00 0.00 60 1007.7
20210115113529 33 360 5.0 16.0 0.00 0.00 0.00 60 1007.8
20210115112524 33 360 7.0 14.0 0.00 0.00 0.00 60 1007.7
20210115112026 34 360 5.0 12.0 0.00 0.00 0.00 59 1007.9
20210115111548 34 360 7.0 14.0 0.00 0.00 0.00 59 1008.0
20210115111036 34 360 5.0 15.0 0.00 0.00 0.00 59 1007.9
20210115110515 34 360 6.0 15.0 0.00 0.00 0.00 58 1008.0
20210115110050 34 360 8.0 14.0 0.00 0.00 0.00 58 1008.1
20210115105515 34 360 7.0 13.0 0.00 0.00 0.00 57 1008.0
20210115105017 34 360 7.0 17.0 0.00 0.00 0.00 57 1008.0
20210115104525 35 360 5.0 15.0 0.00 0.00 0.00 56 1008.1
20210115104021 35 360 8.0 15.0 0.00 0.00 0.00 56 1008.2
20210115103558 35 360 9.0 14.0 0.00 0.00 0.00 56 1008.2
20210115102523 35 360 9.0 18.0 0.00 0.00 0.00 55 1008.2
20210115102020 35 360 7.0 17.0 0.00 0.00 0.00 54 1008.3
20210115101511 35 360 12.0 17.0 0.00 0.00 0.00 54 1008.4
20210115101016 35 360 9.0 14.0 0.00 0.00 0.00 53 1008.5
20210115100514 36 360 9.0 15.0 0.00 0.00 0.00 52 1008.6
20210115100033 36 360 10.0 15.0 0.00 0.00 0.00 52 1008.6
20210115095509 36 360 8.0 16.0 0.00 0.00 0.00 51 1008.8
20210115095013 35 360 8.0 14.0 0.00 0.00 0.00 51 1008.7
20210115094512 35 360 8.0 16.0 0.00 0.00 0.00 50 1008.7
20210115094026 36 360 9.0 16.0 0.00 0.00 0.00 49 1008.8
20210115093515 36 360 10.0 14.0 0.00 0.00 0.00 48 1008.9
20210115092505 36 360 10.0 19.0 0.00 0.00 0.00 47 1008.9
20210115092005 36 360 8.0 19.0 0.00 0.00 0.00 46 1009.0
20210115091611 35 360 7.0 13.0 0.00 0.00 0.00 46 1009.1
20210115091058 35 360 8.0 13.0 0.00 0.00 0.00 45 1009.1
20210115090559 35 360 7.0 13.0 0.00 0.00 0.00 44 1009.2
20210115090153 35 360 6.0 11.0 0.00 0.00 0.00 44 1009.1
20210115085556 35 360 7.0 11.0 0.00 0.00 0.00 44 1009.2
20210115085149 35 360 5.0 10.0 0.00 0.00 0.00 44 1009.2
20210115084732 35 360 7.0 14.0 0.00 0.00 0.00 44 1009.2
20210115084135 36 360 6.0 14.0 0.00 0.00 0.00 45 1009.4
20210115083605 36 360 7.0 12.0 0.00 0.00 0.00 44 1009.5
20210115082613 36 360 6.0 15.0 0.00 0.00 0.00 44 1009.6